Camarillo, CA

7:25 PM PDT on May 27, 2018 (GMT -0700)
Camarillo

Weather History for KCMA - October, 2011

Change the Weather History Date:

Saturday, October 1, 2011

  Actual Average Record
Temperature  
Mean Temperature 70 °F 65 °F  
Max Temperature 82 °F 75 °F 95 °F (1965)
Min Temperature 58 °F 55 °F 42 °F (1929)
Degree Days  
Heating Degree Days 0 2  
Month to date heating degree days 0 2  
Since 1 July heating degree days 6 34  
Cooling Degree Days 5 1  
Month to date cooling degree days 5 1  
Year to date cooling degree days 425 284  
Growing Degree Days 20 (Base 50)    
Moisture  
Dew Point 57 °F    
Average Humidity 62    
Maximum Humidity 84    
Minimum Humidity 39    
Precipitation  
Precipitation 0.00 in 0.00 in 1.74 in (1983)
Month to date precipitation 0.00 0.00  
Year to date precipitation 10.27 11.22  
Since 1 July precipitation 0.04  
Sea Level Pressure  
Sea Level Pressure 29.96 in    
Wind  
Wind Speed 4 mph (WSW)    
Max Wind Speed 12 mph    
Max Gust Speed 14 mph    
Visibility 10 miles    
Events      
T = Trace of Precipitation, MM = Missing Value Source: NWS Daily Summary

Daily Weather History Graph

Daily Weather History Graph

Search for Another Location

Airport or City:

Astronomy

Oct. 01, 2011 Rise Set
Actual Time 6:50 AM PDT 6:40 PM PDT
Civil Twilight 6:25 AM PDT 7:05 PM PDT
Nautical Twilight 5:56 AM PDT 7:34 PM PDT
Astronomical Twilight 5:27 AM PDT 8:03 PM PDT
Moon 11:47 AM PDT (10/1) 9:58 PM PDT (10/1)
Length of Visible Light 12h 40m
Length of Day
11h 50m
Waxing Crescent, 25% of the Moon is Illuminated
Oct 1
Waxing Crescent
Oct 3
First Quarter
Oct 11
Full
Oct 19
Last Quarter
Oct 26
New

Hourly Weather History & Observations

Time (PDT) Temp. Heat Index Dew Point Humidity Pressure Visibility Wind Dir Wind Speed Gust Speed Precip Events Conditions
2:55 AM 61.0 °F - 55.0 °F 81% 29.96 in 10.0 mi ESE 4.6 mph - N/A   Clear
3:55 AM 60.1 °F - 55.0 °F 83% 29.95 in 10.0 mi ENE 5.8 mph - N/A   Clear
4:55 AM 60.1 °F - 55.0 °F 83% 29.95 in 10.0 mi Calm Calm - N/A   Clear
5:55 AM 59.0 °F - 54.0 °F 83% 29.96 in 10.0 mi WNW 5.8 mph - N/A   Clear
6:55 AM 59.0 °F - 54.0 °F 83% 29.96 in 9.0 mi ENE 3.5 mph - N/A   Partly Cloudy
9:55 AM 71.1 °F - 57.0 °F 61% 29.99 in 10.0 mi Calm Calm - N/A   Clear
10:55 AM 75.9 °F - 57.9 °F 54% 29.99 in 10.0 mi SSW 4.6 mph - N/A   Clear
11:55 AM 79.0 °F - 57.9 °F 48% 29.99 in 10.0 mi WSW 4.6 mph - N/A   Clear
12:55 PM 81.0 °F 80.8 °F 55.9 °F 42% 29.98 in 10.0 mi WSW 6.9 mph - N/A   Clear
1:55 PM 81.0 °F 80.5 °F 54.0 °F 39% 29.96 in 10.0 mi West 9.2 mph - N/A   Clear
2:55 PM 80.1 °F 80.4 °F 57.0 °F 45% 29.95 in 10.0 mi West 9.2 mph - N/A   Clear
3:55 PM 78.1 °F - 55.0 °F 45% 29.94 in 10.0 mi WSW 10.4 mph - N/A   Clear
5:55 PM 72.0 °F - 57.0 °F 59% 29.93 in 10.0 mi WSW 4.6 mph - N/A   Clear
6:55 PM 69.1 °F - 59.0 °F 70% 29.93 in 10.0 mi SW 5.8 mph - N/A   Clear
7:55 PM 68.0 °F - 59.0 °F 73% 29.94 in 10.0 mi Calm Calm - N/A   Clear
8:55 PM 66.0 °F - 57.9 °F 75% 29.96 in 10.0 mi Calm Calm - N/A   Clear
9:55 PM 66.9 °F - 59.0 °F 76% 29.96 in 10.0 mi Calm Calm - N/A   Clear
10:55 PM 64.9 °F - 59.0 °F 81% 29.97 in 10.0 mi Calm Calm - N/A   Clear
11:55 PM 64.9 °F - 59.0 °F 81% 29.96 in 10.0 mi Calm Calm - N/A   Clear